Regional Weather Roundup
Issued by NWS

Home | Current Version | Previous Version | Text Only | Print | Product List | Glossary On
Versions: 1 2 3 4 5 6 7 8 9 10 11 12 13 14 15 16 17 18 19 20 21 22 23 24 25 26 27 28 29 30 31 32 33 34 35 36 37 38 39 40 41 42 43 44 45 46 47 48 49 50
000
ASUS45 KTFX 121210
RWRMT
MONTANA REGIONAL WEATHER ROUNDUP
NATIONAL WEATHER SERVICE GREAT FALLS MT
500 AM MST TUE DEC 12 2017

NOTE: "FAIR" INDICATES FEW OR NO CLOUDS BELOW 12000 FEET WITH NO
SIGNIFICANT WEATHER AND/OR OBSTRUCTIONS TO VISIBILITY.

MTZ001>007-043-121300-
WEST OF THE DIVIDE

CITY           SKY/WX    TMP DP  RH WIND       PRES   REMARKS
KALISPELL      CLOUDY    22  21  96 CALM      30.54F FOG
MISSOULA       FOG       18  14  84 N5        30.57S VSB 3/4
BUTTE          FAIR       7   1  76 SE3       30.44F
MULLAN PASS    FAIR      32  32 100 SW7       30.41F WCI  26
ANACONDA         N/A     12   5  73 CALM      30.46S
DEER LODGE       N/A     10   9  92 CALM      30.49F
EUREKA           N/A     21  18  86 MISG      30.54S
HAMILTON         N/A     12   9  85 CALM      30.53F VSB 1/2
LIBBY            N/A     23  19  86 CALM      30.53F
PLAINS           N/A     26  18  72 SE2       30.53F
RONAN            N/A     24  21  88 CALM      30.52S
$$

MTZ008-052>055-121300-
SOUTHWEST MONTANA

CITY           SKY/WX    TMP DP  RH WIND       PRES   REMARKS
BOZEMAN        FAIR       8   4  83 SE5       30.42F
DILLON         FAIR      24   9  52 SW13      30.44F WCI  12
W YELLOWSTONE  MOCLDY    -4  -9  77 CALM      30.56S
ENNIS          CLOUDY    28  10  47 SE10      30.47F WCI  19
THREE FORKS      N/A      5   0  80 CALM      30.36F
TWIN BRIDGES     N/A     12   2  64 CALM      30.37F
$$

MTZ009-010-012-014-046-048-049-054-121300-
EAST SLOPES AND CENTRAL MONTANA

CITY           SKY/WX    TMP DP  RH WIND       PRES   REMARKS
CUT BANK       FAIR      49  -5  10 W29G38    30.12F
GREAT FALLS    FAIR      42   6  22 SW18      30.22F
MALMSTROM AFB  FAIR      41   8  25 SW17      30.20F
HELENA         FAIR      14  11  87 CALM      30.42F
BOWMANS CRNR   FAIR      33  10  38 S22       30.23F WCI  21
CHOTEAU          N/A     46  -6  11 S9        30.19F
FAIRFIELD      FAIR      40   6  24 S17       30.20F
POWER          FAIR      34   6  30 SW8       30.20F WCI  28
RAYNESFORD     FAIR      51   4  14 SW7       30.22S
ULM            FAIR      37   7  29 SW7       30.23F WCI  31
$$

MTZ011-013-016-021-045-047-050-051-121300-
NORTH CENTRAL MONTANA

CITY           SKY/WX    TMP DP  RH WIND       PRES   REMARKS
HAVRE          FAIR      33  17  51 SW16      30.14F WCI  23
LEWISTOWN      FAIR      35  21  56 CALM      30.21F
N BAR RANCH    FAIR      48  19  32 NW17      30.21F
CHINOOK          N/A     18  16  93 SE3       30.14F
DENTON         FAIR      33  19  55 S13       30.14F WCI  24
GEYSER         FAIR      47   6  19 W18       30.19F
GRASS RANGE    FAIR      46  18  31 SW9       30.15F
STANFORD       FAIR      43  10  26 W9        30.20F
WINIFRED       FAIR      46  16  30 W12       30.16F
$$

MTZ017>020-022>027-061-062-121300-
NORTHEAST MONTANA

CITY           SKY/WX    TMP DP  RH WIND       PRES   REMARKS
GLASGOW        FAIR      25  20  81 CALM      30.11F
GLENDIVE       FAIR      24  21  88 S12       30.14F WCI  13
JORDAN           N/A     25  18  74 W5        30.14F
SIDNEY         FAIR      23  21  92 S9        30.11F WCI  13
WOLF POINT     FAIR      22  18  85 W7        30.11F WCI  13
MALTA          CLEAR     18  16  93 SW5       30.12F
PLENTYWOOD       N/A     23  19  86 CALM      30.05F
POPLAR           N/A     23  19  86 W3        30.12F
SCOBEY           N/A     26  15  63 CALM      30.04F
$$

MTZ028>42-056>058-121300-
SOUTHCENTRAL AND SOUTHEAST MONTANA

CITY           SKY/WX    TMP DP  RH WIND       PRES   REMARKS
BAKER          FAIR      27  21  78 W7        30.16F WCI  19
BILLINGS       FAIR      41  18  39 SW24G30   30.23F
LIVINGSTON     FAIR      45  15  30 W20G30    30.33F
MILES CITY     FAIR      24  20  84 S10       30.18F WCI  14
BIG TIMBER     CLEAR     43  14  31 W31G38    30.29F
EKALAKA          N/A     36  14  40 SW10      30.13F WCI  28
FORSYTH          N/A     25  18  74 CALM      30.20F
LAUREL           N/A     39  18  41 SW14      30.26  WCI  31
$$

REGIONAL REPORTS...DAKOTAS

CITY           SKY/WX    TMP DP  RH WIND       PRES   REMARKS
WILLISTON      CLEAR     28  23  80 SW6       30.09F WCI  22
MINOT          MOCLDY    30  24  78 SW9       30.03F WCI  22
DICKINSON      FAIR      25  21  85 SW9       30.09F WCI  15
BEACH          FAIR      30  23  74 W12       30.16F WCI  21
CROSBY         FAIR      28  25  86 SW14      30.03F WCI  17
TIOGA          FAIR      27  27 100 W5        30.06F
WATFORD CITY   FAIR      25  25 100 SW10      30.08F WCI  15
BISMARCK       FAIR      20  18  92 SW5       30.13F
GRAND FORKS    CLOUDY    19  16  88 S8        30.11F WCI   9
FARGO          CLOUDY    16  12  84 S9        30.14F WCI   4
BUFFALO SD       N/A     26  19  74 W12       30.10F WCI  16
RAPID CITY     FAIR      18  11  74 CALM      30.21F
$$

REGIONAL REPORTS...WYOMING/IDAHO/WASHINGTON

CITY           SKY/WX    TMP DP  RH WIND       PRES   REMARKS
GILLETTE       FAIR      39  16  39 SW14      30.24F WCI  31
SHERIDAN       FAIR      26  16  65 CALM      30.23F
BUFFALO WY     FAIR      38   6  26 SW5       30.26F
CODY           FAIR      22  15  75 CALM      30.34F
YELLOWSTONE LA   N/A      5   2  87 CALM      30.56F
IDAHO FALLS    FAIR      10   7  87 N3        30.57S
SALMON         CLOUDY    14  11  87 CALM      30.70S FOG
BOISE          CLOUDY    24  21  88 CALM      30.67F
SPOKANE        LGT SNOW  24  24 100 W5        30.57F VSB 1
$$

REGIONAL REPORTS...ALBERTA

CITY           SKY/WX    TMP DP  RH WIND       PRES   REMARKS
EDMONTON       CLEAR     36  25  64 SW10      29.87F WCI  28
CALGARY        MOCLDY    46  19  34 VRB2      30.02F
LETHBRIDGE     CLEAR     48  -2  12 SW23G30   30.09F
MEDICINE HAT   CLEAR     34  19  55 SW14      30.03F WCI  24
$$

REGIONAL REPORTS...SASKATCHEWAN

CITY           SKY/WX    TMP DP  RH WIND       PRES   REMARKS
SWIFT CURRENT  CLEAR     34  21  60 SW13      29.98F WCI  25
REGINA         CLEAR     27  21  80 W10       29.96F WCI  17
SASKATOON      PTCLDY    27  23  86 SW12      29.91F WCI  16
$$



USA.gov is the U.S. government's official web portal to all federal, state and local government web resources and services.